DLR-TUBSAT

Last updated on Mon Oct 20 2025 00:02:29 GMT+0000 (Coordinated Universal Time)

1 25757U 99029B 25292.23906866 .00000322 00000+0 90833-4 0 9998 2 25757 98.6516 275.0834 0014357 7.7482 352.3931 14.52325837398275
UTC large
Height (km)
Speed (km/s)
/
Latitude / Longitude
Inclination (degrees)
Orbital Period (minutes)
Azimuth
Elevation
Range (km)
Doppler Factor

Next 0 passes for location: London (51.5072 / 0.1276)

Sorry there are no passes over London.